User: anonymous   Login
Location: Unspecified
(0.0000°N, 0.0000°E)
Time: 01:23:22
(UTC+00:00)
Language:

HIMAWARI 8 - Orbit

View from above orbital plane
View from above orbital plane
View from above satellite
View from above satellite

Ground track
Ground track

The orbit data is extracted from the following two-line orbital elements,

1 40267U 14060A   20297.78696767 -.00000290  00000-0  00000+0 0  9997
2 40267   0.0273 190.7873 0000558 350.8426 274.9782  1.00272371 22189
Epoch (UTC): 23 October 2020 18:53:14
Eccentricity: 0.0000558
inclination: 0.0273°
perigee height: 35784 km
apogee height: 35788 km
right ascension of ascending node: 190.7873°
argument of perigee: 350.8426°
revolutions per day: 1.00272371
mean anomaly at epoch: 274.9782°
orbit number at epoch: 2218

The dashed part of the orbit path shows where the satellite is in the earth's shadow,  

DLR